User: anonymous   Login
Location: Unspecified
(0.0000°N, 0.0000°E)
Time: 00:25:49
(UTC+00:00)
Language:

NOAA 17 - Orbit

View from above orbital plane
View from above orbital plane
View from above satellite
View from above satellite

Ground track
Ground track

The orbit data is extracted from the following two-line orbital elements,

1 27453U 02032A   16127.49505551  .00000038  00000-0  33985-4 0  9992
2 27453  98.3800 103.0922 0010844 316.4624  43.5699 14.24942077720848
Epoch (UTC): 06 May 2016 11:52:52
Eccentricity: 0.0010844
inclination: 98.3800°
perigee height: 801 km
apogee height: 816 km
right ascension of ascending node: 103.0922°
argument of perigee: 316.4624°
revolutions per day: 14.24942077
mean anomaly at epoch: 43.5699°
orbit number at epoch: 72084

The dashed part of the orbit path shows where the satellite is in the earth's shadow,  

DLR